DW4879 Weather Reports


time (UTC)temp
F
wind
direction
speed
knots
gust
knots
rain 1hr
in
rain 24hr
in
rain mn
in
humidity
%
barometer
mb
20260503060110 53 98 1.7 2.6 0.00 0.00 0.00 30 1022.2
20260503055103 53 90 1.7 2.6 0.00 0.00 0.00 30 1022.2
20260503054506 53 93 1.7 2.6 0.00 0.00 0.00 30 1022.1
20260503054103 53 88 1.7 2.6 0.00 0.00 0.00 30 1022.0
20260503053505 54 108 1.7 2.6 0.00 0.00 0.00 30 1022.0
20260503053101 54 108 1.7 2.6 0.00 0.00 0.00 30 1022.0
20260503052505 54 136 1.7 3.5 0.00 0.00 0.00 30 1022.0
20260503052009 55 146 2.6 3.5 0.00 0.00 0.00 30 1021.9
20260503051616 55 175 0.9 3.5 0.00 0.00 0.00 30 1022.0
20260503051006 55 109 0.0 1.7 0.00 0.00 0.00 29 1021.9
20260503050605 55 109 0.0 1.7 0.00 0.00 0.00 29 1021.8
20260503050053 55 109 0.0 1.7 0.00 0.00 0.00 28 1021.9
20260503045601 55 109 0.0 1.7 0.00 0.00 0.00 28 1021.9
20260503045002 56 109 0.0 1.7 0.00 0.00 0.00 28 1021.8
20260503044513 56 109 0.0 0.9 0.00 0.00 0.00 28 1021.8
20260503044105 56 159 0.0 0.0 0.00 0.00 0.00 28 1021.9
20260503043506 56 159 0.0 0.0 0.00 0.00 0.00 28 1021.9
20260503043105 56 159 0.0 0.0 0.00 0.00 0.00 28 1021.8
20260503042552 56 159 0.0 0.0 0.00 0.00 0.00 28 1021.8
20260503042101 56 159 0.0 0.0 0.00 0.00 0.00 28 1021.8
20260503041502 56 159 0.0 0.0 0.00 0.00 0.00 28 1021.8
20260503041011 56 159 0.0 0.0 0.00 0.00 0.00 28 1021.8
20260503040606 56 159 0.0 0.0 0.00 0.00 0.00 28 1021.8
20260503040008 56 159 0.0 0.0 0.00 0.00 0.00 28 1021.8
20260503035604 57 159 0.0 0.0 0.00 0.00 0.00 27 1021.8
20260503035005 57 159 0.0 0.0 0.00 0.00 0.00 27 1021.6
20260503034512 57 159 0.0 0.0 0.00 0.00 0.00 27 1021.6
20260503034002 57 159 0.0 0.0 0.00 0.00 0.00 27 1021.6
20260503033514 57 159 0.0 0.0 0.00 0.00 0.00 26 1021.7
20260503033001 58 159 0.0 0.0 0.00 0.00 0.00 26 1021.6
20260503032557 58 159 0.0 0.0 0.00 0.00 0.00 26 1021.5
20260503032106 58 159 0.0 0.0 0.00 0.00 0.00 26 1021.5
20260503031556 59 159 0.0 0.0 0.00 0.00 0.00 25 1021.5
20260503031047 59 159 0.0 0.9 0.00 0.00 0.00 25 1021.5
20260503030554 59 159 0.0 0.9 0.00 0.00 0.00 25 1021.3
20260503030105 60 159 0.0 0.9 0.00 0.00 0.00 25 1021.3
20260503025503 60 159 0.0 0.9 0.00 0.00 0.00 24 1021.3
20260503025009 60 159 0.0 0.9 0.00 0.00 0.00 24 1021.2
20260503024524 61 159 0.0 1.7 0.00 0.00 0.00 24 1021.1
20260503024022 61 159 0.0 1.7 0.00 0.00 0.00 24 1021.2
20260503023530 62 159 0.0 1.7 0.00 0.00 0.00 23 1021.1
20260503023038 62 159 0.0 1.7 0.00 0.00 0.00 23 1021.1
20260503022544 63 127 0.0 1.7 0.00 0.00 0.00 23 1021.1
20260503022050 63 127 0.0 1.7 0.00 0.00 0.00 22 1021.1
20260503021602 64 127 0.0 1.7 0.00 0.00 0.00 22 1021.0
20260503021104 64 127 0.0 1.7 0.00 0.00 0.00 21 1021.0
20260503020505 65 127 0.0 1.7 0.00 0.00 0.00 21 1020.9
20260503015506 66 95 0.0 1.7 0.00 0.00 0.00 20 1020.9
20260503015058 66 95 0.0 1.7 0.00 0.00 0.00 20 1020.9
20260503014549 66 95 0.9 1.7 0.00 0.00 0.00 20 1020.8
20260503014057 67 95 0.0 3.5 0.00 0.00 0.00 19 1020.9
20260503013603 67 73 0.0 3.5 0.00 0.00 0.00 19 1020.9
20260503013007 68 87 0.9 3.5 0.00 0.00 0.00 19 1020.8
20260503012511 68 239 0.0 1.7 0.00 0.00 0.00 19 1020.9
20260503012019 68 240 0.0 5.2 0.00 0.00 0.00 19 1020.9
20260503011524 68 209 0.9 5.2 0.00 0.00 0.00 19 1020.8
20260503011032 68 221 0.9 1.7 0.00 0.00 0.00 19 1020.9
20260503010539 68 69 0.0 2.6 0.00 0.00 0.00 19 1020.9
20260503010048 69 69 0.9 2.6 0.00 0.00 0.00 18 1020.9
20260503005537 69 115 0.9 3.5 0.00 0.00 0.00 18 1020.9
20260503005045 69 138 0.9 6.1 0.00 0.00 0.00 19 1020.9
20260503004600 69 96 0.9 7.0 0.00 0.00 0.00 18 1021.0
20260503004058 69 119 0.9 3.5 0.00 0.00 0.00 18 1021.0
20260503003549 69 292 1.7 3.5 0.00 0.00 0.00 18 1021.0
20260503003111 70 287 0.9 2.6 0.00 0.00 0.00 18 1021.1
20260503002549 70 169 0.0 3.5 0.00 0.00 0.00 18 1021.2
20260503002056 70 163 0.9 6.1 0.00 0.00 0.00 18 1021.2
20260503001601 69 143 2.6 6.1 0.00 0.00 0.00 19 1021.1
20260503001038 69 151 0.9 5.2 0.00 0.00 0.00 18 1021.1
20260503000545 69 126 1.7 5.2 0.00 0.00 0.00 18 1021.1
20260503000036 69 165 1.7 6.1 0.00 0.00 0.00 19 1021.2
20260502235543 69 185 3.5 6.1 0.00 0.00 0.00 19 1021.2
20260502235048 69 92 1.7 4.3 0.00 0.00 0.00 18 1021.2
20260502234557 69 134 1.7 3.5 0.00 0.00 0.00 19 1021.2
20260502234048 69 161 0.0 6.1 0.00 0.00 0.00 20 1021.2
20260502233556 68 199 0.9 6.1 0.00 0.00 0.00 20 1021.3
20260502233047 67 194 2.6 7.0 0.00 0.00 0.00 20 1021.2
20260502232555 67 102 0.9 7.0 0.00 0.00 0.00 20 1021.3
20260502232059 68 134 0.9 7.0 0.00 0.00 0.00 20 1021.3
20260502231551 68 178 3.5 7.0 0.00 0.00 0.00 19 1021.3
20260502231059 68 156 2.6 6.1 0.00 0.00 0.00 21 1021.3
20260502230603 68 116 0.0 6.1 0.00 0.00 0.00 21 1021.4
20260502230007 69 167 2.6 7.8 0.00 0.00 0.00 20 1021.4
20260502225604 69 120 3.5 7.8 0.00 0.00 0.00 21 1021.3
20260502225005 69 254 1.7 5.2 0.00 0.00 0.00 21 1021.3
20260502224603 69 156 2.6 5.2 0.00 0.00 0.00 20 1021.4
20260502224002 69 308 1.7 7.0 0.00 0.00 0.00 20 1021.4
20260502223558 69 200 4.3 7.0 0.00 0.00 0.00 20 1021.4
20260502223049 69 186 3.5 6.1 0.00 0.00 0.00 20 1021.5
20260502222557 70 117 3.5 8.7 0.00 0.00 0.00 20 1021.5
20260502222106 69 126 5.2 8.7 0.00 0.00 0.00 20 1021.6
20260502221505 69 121 4.3 7.8 0.00 0.00 0.00 21 1021.7
20260502221102 69 108 3.5 10.4 0.00 0.00 0.00 20 1021.7
20260502220502 71 149 5.2 10.4 0.00 0.00 0.00 19 1021.7
20260502220059 72 175 5.2 8.7 0.00 0.00 0.00 19 1021.9
20260502215606 72 174 2.6 6.1 0.00 0.00 0.00 19 1021.9
20260502215008 71 140 2.6 7.8 0.00 0.00 0.00 19 1022.0
20260502214602 71 163 4.3 7.8 0.00 0.00 0.00 19 1022.0
20260502214009 71 175 5.2 8.7 0.00 0.00 0.00 19 1022.2
20260502213601 71 190 2.6 8.7 0.00 0.00 0.00 20 1022.4
20260502213008 71 168 3.5 8.7 0.00 0.00 0.00 20 1022.5
20260502212604 71 315 1.7 8.7 0.00 0.00 0.00 20 1022.6
20260502212004 71 172 2.6 8.7 0.00 0.00 0.00 21 1022.6
20260502211513 70 355 1.7 7.0 0.00 0.00 0.00 22 1022.7
20260502211105 69 345 2.6 7.0 0.00 0.00 0.00 22 1022.8
20260502210507 69 350 0.9 5.2 0.00 0.00 0.00 23 1022.9
20260502205505 67 59 0.0 6.1 0.00 0.00 0.00 24 1022.9
20260502205100 67 274 1.7 6.1 0.00 0.00 0.00 25 1023.0
20260502204552 66 63 1.7 5.2 0.00 0.00 0.00 24 1023.0
20260502204059 66 87 1.7 7.0 0.00 0.00 0.00 24 1023.0
20260502203549 67 134 1.7 8.7 0.00 0.00 0.00 23 1023.1
20260502203059 68 177 3.5 8.7 0.00 0.00 0.00 23 1023.1
20260502202546 69 165 4.3 8.7 0.00 0.00 0.00 23 1023.2
20260502202037 69 349 2.6 9.6 0.00 0.00 0.00 24 1023.2
20260502201545 68 82 3.5 9.6 0.00 0.00 0.00 23 1023.2
20260502201037 68 154 2.6 7.0 0.00 0.00 0.00 23 1023.2
20260502200544 69 67 0.9 5.2 0.00 0.00 0.00 23 1023.4
20260502200108 69 38 1.7 6.1 0.00 0.00 0.00 23 1023.3
20260502195557 69 68 2.6 6.1 0.00 0.00 0.00 22 1023.3
20260502195048 69 127 1.7 5.2 0.00 0.00 0.00 23 1023.3
20260502194608 68 84 1.7 5.2 0.00 0.00 0.00 23 1023.4
20260502194047 68 264 0.9 5.2 0.00 0.00 0.00 22 1023.4
20260502193555 67 27 0.9 10.4 0.00 0.00 0.00 25 1023.5
20260502193046 68 109 6.1 10.4 0.00 0.00 0.00 25 1023.6
20260502192551 68 124 2.6 7.8 0.00 0.00 0.00 25 1023.5
20260502192058 66 117 0.9 4.3 0.00 0.00 0.00 27 1023.7
20260502191556 66 76 1.7 7.0 0.00 0.00 0.00 28 1023.7
20260502191057 66 79 3.5 7.0 0.00 0.00 0.00 28 1023.8
20260502190548 65 53 1.7 8.7 0.00 0.00 0.00 28 1023.9
20260502190054 65 111 3.5 8.7 0.00 0.00 0.00 30 1023.9
20260502185544 65 90 2.6 9.6 0.00 0.00 0.00 31 1024.0
20260502185035 65 100 3.5 9.6 0.00 0.00 0.00 30 1023.9
20260502184545 66 117 3.5 10.4 0.00 0.00 0.00 31 1024.1
20260502184051 65 204 4.3 10.4 0.00 0.00 0.00 30 1024.1
20260502183556 64 90 2.6 8.7 0.00 0.00 0.00 30 1024.2
20260502183049 65 159 4.3 8.7 0.00 0.00 0.00 30 1024.2
20260502182556 66 225 2.6 8.7 0.00 0.00 0.00 30 1024.3
20260502182100 65 169 2.6 7.8 0.00 0.00 0.00 31 1024.3
20260502181516 65 174 2.6 9.6 0.00 0.00 0.00 32 1024.5
20260502181059 65 152 4.3 10.4 0.00 0.00 0.00 33 1024.6
20260502180502 64 106 3.5 9.6 0.00 0.00 0.00 32 1024.6
20260502164050 59 165 5.2 9.6 0.00 0.00 0.00 42 1025.1
20260502163557 58 103 4.3 9.6 0.00 0.00 0.00 43 1025.0
20260502163105 58 125 5.2 10.4 0.00 0.00 0.00 42 1025.1
20260502162555 58 184 6.1 9.6 0.00 0.00 0.00 43 1025.1
20260502162104 57 48 2.6 12.2 0.00 0.00 0.00 45 1025.1
20260502161554 56 98 5.2 12.2 0.00 0.00 0.00 44 1025.1
20260502161044 56 105 5.2 10.4 0.00 0.00 0.00 45 1025.1
20260502160555 56 107 6.1 13.0 0.00 0.00 0.00 44 1025.1
20260502160106 56 144 4.3 13.0 0.00 0.00 0.00 45 1025.2
20260502152002 53 112 5.2 10.4 0.00 0.00 0.00 49 1025.1
20260502151610 53 133 4.3 10.4 0.00 0.00 0.00 50 1025.3
20260502151048 52 108 7.8 10.4 0.00 0.00 0.00 50 1025.3
20260502150556 52 129 5.2 9.6 0.00 0.00 0.00 51 1025.3
20260502150131 52 101 6.1 9.6 0.00 0.00 0.00 51 1025.3
20260502130536 43 90 7.0 13.0 0.00 0.00 0.00 64 1024.5
20260502123546 41 71 5.2 11.3 0.00 0.00 0.00 66 1024.0
20260502123054 41 90 5.2 11.3 0.00 0.00 0.00 66 1024.0
20260502122545 41 46 5.2 9.6 0.00 0.00 0.00 66 1023.9
20260502122034 41 88 4.3 9.6 0.00 0.00 0.00 66 1023.9
20260502121542 41 78 5.2 10.4 0.00 0.00 0.00 66 1023.9
20260502121035 41 69 6.1 10.4 0.00 0.00 0.00 66 1023.9
20260502120541 42 61 6.1 11.3 0.00 0.00 0.00 66 1023.9
20260502120105 42 45 6.1 13.0 0.00 0.00 0.00 66 1023.8
20260502115558 42 80 7.0 13.0 0.00 0.00 0.00 66 1023.8
20260502115045 42 48 5.2 13.0 0.00 0.00 0.00 66 1023.8
20260502114603 42 71 7.0 11.3 0.00 0.00 0.00 65 1023.8
20260502114044 42 74 6.1 12.2 0.00 0.00 0.00 65 1023.9
20260502113534 42 82 6.1 12.2 0.00 0.00 0.00 65 1023.9
20260502113055 42 87 7.8 13.9 0.00 0.00 0.00 65 1023.8
20260502112550 43 71 6.1 14.8 0.00 0.00 0.00 65 1023.8
20260502112057 43 39 7.0 14.8 0.00 0.00 0.00 65 1023.8
20260502111549 43 51 6.1 13.9 0.00 0.00 0.00 65 1023.8
20260502111058 43 39 7.8 13.9 0.00 0.00 0.00 65 1023.8
20260502110603 43 78 7.8 12.2 0.00 0.00 0.00 65 1023.7
20260502110005 43 82 6.1 12.2 0.00 0.00 0.00 65 1023.7
20260502105601 43 86 7.0 12.2 0.00 0.00 0.00 65 1023.6
20260502105005 43 60 7.0 12.2 0.00 0.00 0.00 65 1023.6
20260502104559 43 42 7.0 12.2 0.00 0.00 0.00 65 1023.7
20260502104004 43 73 6.1 12.2 0.00 0.00 0.00 65 1023.7
20260502103558 43 55 6.1 13.0 0.00 0.00 0.00 64 1023.7
20260502103109 43 71 7.0 11.3 0.00 0.00 0.00 64 1023.6
20260502102559 43 76 5.2 13.9 0.00 0.00 0.00 64 1023.7
20260502102046 43 124 7.8 13.9 0.00 0.00 0.00 64 1023.5
20260502101607 43 34 6.1 12.2 0.00 0.00 0.00 64 1023.5
20260502101100 43 58 7.0 12.2 0.00 0.00 0.00 64 1023.5
20260502100502 43 40 6.1 12.2 0.00 0.00 0.00 64 1023.5
20260502091046 44 49 5.2 10.4 0.00 0.00 0.00 64 1023.0
20260502090535 44 57 5.2 9.6 0.00 0.00 0.00 64 1022.9
20260502071057 46 95 5.2 10.4 0.00 0.00 0.00 58 1022.5
20260502070604 46 84 3.5 9.6 0.00 0.00 0.00 58 1022.6
20260502070012 46 88 5.2 10.4 0.00 0.00 0.00 57 1022.5
20260502065603 46 82 3.5 10.4 0.00 0.00 0.00 56 1022.5
20260502065007 46 93 4.3 10.4 0.00 0.00 0.00 56 1022.5